Pipestone, MN

5:15 AM CDT on March 27, 2017 (GMT -0500)
Pipestone Municipal

Weather History for KPQN - December, 2012

Change the Weather History Date:

Friday, December 14, 2012

  Actual Average Record
Temperature  
Mean Temperature 30 °F -  
Max Temperature 42 °F 28 °F 55 °F (2002)
Min Temperature 17 °F 13 °F -7 °F (2008)
Degree Days  
Heating Degree Days 36    
Moisture  
Dew Point 25 °F    
Average Humidity 79    
Maximum Humidity 100    
Minimum Humidity 61    
Precipitation  
Precipitation 0.00 in - - ()
Sea Level Pressure  
Sea Level Pressure 29.83 in    
Wind  
Wind Speed 9 mph (SSE)    
Max Wind Speed 15 mph    
Max Gust Speed 18 mph    
Visibility 8 miles    
Events      
Averages and records for this station are not official NWS values.
T = Trace of Precipitation, MM = Missing Value Source: NWS Daily Summary

Daily Weather History Graph

Daily Weather History Graph

Search for Another Location

Airport or City:

Trip Planner

Search our weather history database for the weather conditions in past years. The results will help you decide how hot, cold, wet, or windy it might be!

Date:

Astronomy

Dec. 14, 2012 Rise Set
Actual Time 7:52 AM CST 4:47 PM CST
Civil Twilight 7:19 AM CST 5:20 PM CST
Nautical Twilight 6:43 AM CST 5:57 PM CST
Astronomical Twilight 6:07 AM CST 6:32 PM CST
Moon 8:56 AM CST (12/14) 6:44 PM CST (12/14)
Length of Visible Light 10h 01m
Length of Day
8h 55m
Waxing Crescent, 3% of the Moon is Illuminated
Dec 14
Waxing Crescent
Dec 19
First Quarter
Dec 28
Full
Jan 4
Last Quarter
Jan 11
New

Hourly Weather History & Observations

Time (CST) Temp. Windchill Dew Point Humidity Pressure Visibility Wind Dir Wind Speed Gust Speed Precip Events Conditions
12:13 AM 17.6 °F 8.2 °F 17.6 °F 100% 30.05 in 4.0 mi ESE 6.9 mph - N/A   Clear
12:33 AM 17.6 °F 7.3 °F 17.6 °F 100% 30.04 in 4.0 mi SE 8.1 mph - N/A   Clear
12:53 AM 17.6 °F 8.2 °F 17.6 °F 100% 30.03 in 3.0 mi ESE 6.9 mph - N/A   Clear
1:14 AM 19.4 °F 11.5 °F 17.6 °F 93% 30.02 in 4.0 mi SE 5.8 mph - N/A   Clear
1:33 AM 19.4 °F 10.4 °F 17.6 °F 93% 30.02 in 4.0 mi SE 6.9 mph - N/A   Clear
1:53 AM 19.4 °F 10.4 °F 17.6 °F 93% 30.02 in 4.0 mi SE 6.9 mph - N/A   Clear
2:14 AM 19.4 °F 10.4 °F 17.6 °F 93% 30.03 in 4.0 mi SE 6.9 mph - N/A   Clear
2:33 AM 19.4 °F 10.4 °F 17.6 °F 93% 30.03 in 4.0 mi SE 6.9 mph - N/A   Clear
2:53 AM 17.6 °F 9.3 °F 15.8 °F 93% 30.02 in 4.0 mi ESE 5.8 mph - N/A   Clear
3:13 AM 17.6 °F 9.3 °F 15.8 °F 93% 30.01 in 4.0 mi SE 5.8 mph - N/A   Clear
3:53 AM 17.6 °F 10.7 °F 15.8 °F 93% 30.00 in 4.0 mi SE 4.6 mph - N/A   Clear
4:14 AM 17.6 °F 9.3 °F 15.8 °F 93% 30.00 in 4.0 mi SSE 5.8 mph - N/A   Clear
4:33 AM 17.6 °F 10.7 °F 15.8 °F 93% 29.99 in 4.0 mi SE 4.6 mph - N/A   Clear
4:53 AM 19.4 °F 9.5 °F 17.6 °F 93% 29.98 in 7.0 mi SSE 8.1 mph - N/A   Clear
5:14 AM 19.4 °F 9.5 °F 17.6 °F 93% 29.97 in 7.0 mi SE 8.1 mph - N/A   Clear
5:33 AM 17.6 °F 7.3 °F 17.6 °F 100% 29.97 in 7.0 mi SE 8.1 mph - N/A   Clear
5:53 AM 17.6 °F 7.3 °F 17.6 °F 100% 29.96 in 5.0 mi SE 8.1 mph - N/A   Clear
6:13 AM 17.6 °F 7.3 °F 17.6 °F 100% 29.96 in 7.0 mi SE 8.1 mph - N/A   Clear
6:33 AM 17.6 °F 6.4 °F 17.6 °F 100% 29.95 in 7.0 mi SE 9.2 mph - N/A   Clear
6:53 AM 19.4 °F 8.6 °F 17.6 °F 93% 29.95 in 7.0 mi SSE 9.2 mph - N/A   Clear
7:13 AM 21.2 °F 10.9 °F 19.4 °F 93% 29.95 in 7.0 mi SSE 9.2 mph - N/A   Clear
7:33 AM 24.8 °F 13.4 °F 21.2 °F 86% 29.94 in 10.0 mi SSE 12.7 mph - N/A   Clear
7:53 AM 24.8 °F 14.0 °F 19.4 °F 80% 29.94 in 10.0 mi SSE 11.5 mph - N/A   Clear
8:13 AM 24.8 °F 16.1 °F 19.4 °F 80% 29.94 in 10.0 mi SE 8.1 mph - N/A   Clear
8:33 AM 23.0 °F 13.9 °F 19.4 °F 86% 29.94 in 10.0 mi SE 8.1 mph - N/A   Clear
8:53 AM 24.8 °F 16.9 °F 19.4 °F 80% 29.94 in 10.0 mi SE 6.9 mph - N/A   Clear
9:13 AM 26.6 °F 17.5 °F 21.2 °F 80% 29.93 in 10.0 mi SSE 9.2 mph - N/A   Clear
9:33 AM 28.4 °F 18.0 °F 23.0 °F 80% 29.92 in 10.0 mi SSE 12.7 mph - N/A   Clear
9:53 AM 30.2 °F 19.8 °F 23.0 °F 75% 29.92 in 10.0 mi South 13.8 mph - N/A   Clear
10:13 AM 30.2 °F 22.6 °F 23.0 °F 75% 29.92 in 10.0 mi South 8.1 mph - N/A   Clear
10:53 AM 33.8 °F 25.3 °F 24.8 °F 70% 29.91 in 10.0 mi South 11.5 mph - N/A   Clear
11:13 AM 33.8 °F 25.8 °F 26.6 °F 75% 29.90 in 10.0 mi South 10.4 mph - N/A   Clear
11:33 AM 35.6 °F 28.0 °F 26.6 °F 70% 29.88 in 10.0 mi SSE 10.4 mph - N/A   Clear
11:53 AM 35.6 °F 28.0 °F 26.6 °F 70% 29.86 in 10.0 mi SSE 10.4 mph - N/A   Clear
12:13 PM 37.4 °F 29.3 °F 28.4 °F 70% 29.84 in 10.0 mi SSE 12.7 mph - N/A   Clear
12:33 PM 37.4 °F 30.3 °F 28.4 °F 70% 29.82 in 10.0 mi SE 10.4 mph - N/A   Clear
12:53 PM 39.2 °F 33.0 °F 28.4 °F 65% 29.81 in 10.0 mi SE 9.2 mph - N/A   Clear
1:13 PM 39.2 °F 33.0 °F 28.4 °F 65% 29.79 in 10.0 mi SE 9.2 mph - N/A   Clear
1:33 PM 39.2 °F 32.0 °F 28.4 °F 65% 29.78 in 10.0 mi SSE 11.5 mph - N/A   Clear
1:53 PM 41.0 °F 34.7 °F 28.4 °F 61% 29.77 in 10.0 mi SE 10.4 mph - N/A   Clear
2:13 PM 41.0 °F 34.7 °F 30.2 °F 65% 29.76 in 10.0 mi SE 10.4 mph - N/A   Clear
2:33 PM 41.0 °F 34.7 °F 30.2 °F 65% 29.75 in 10.0 mi SSE 10.4 mph - N/A   Clear
2:53 PM 41.0 °F 35.2 °F 30.2 °F 65% 29.74 in 10.0 mi SSE 9.2 mph - N/A   Clear
3:13 PM 42.8 °F 36.6 °F 30.2 °F 61% 29.73 in 10.0 mi SE 11.5 mph - N/A   Clear
3:33 PM 41.0 °F 34.7 °F 30.2 °F 65% 29.74 in 10.0 mi SSE 10.4 mph - N/A   Scattered Clouds
3:53 PM 41.0 °F 34.3 °F 30.2 °F 65% 29.74 in 10.0 mi SSE 11.5 mph - N/A   Clear
4:14 PM 39.2 °F 35.9 °F 30.2 °F 70% 29.74 in 10.0 mi SSE 4.6 mph - N/A   Clear
4:33 PM 39.2 °F 35.0 °F 30.2 °F 70% 29.73 in 10.0 mi SE 5.8 mph - N/A   Clear
4:53 PM 37.4 °F 32.1 °F 30.2 °F 75% 29.72 in 10.0 mi SE 6.9 mph - N/A   Clear
5:13 PM 37.4 °F 31.4 °F 30.2 °F 75% 29.72 in 10.0 mi SE 8.1 mph - N/A   Clear
5:33 PM 37.4 °F 31.4 °F 30.2 °F 75% 29.71 in 10.0 mi SE 8.1 mph - N/A   Clear
5:53 PM 39.2 °F 33.0 °F 30.2 °F 70% 29.72 in 10.0 mi SSE 9.2 mph - N/A   Clear
6:13 PM 39.2 °F 32.5 °F 30.2 °F 70% 29.71 in 10.0 mi SSE 10.4 mph - N/A   Clear
6:34 PM 39.2 °F 31.6 °F 30.2 °F 70% 29.70 in 10.0 mi SSE 12.7 mph - N/A   Clear
6:53 PM 39.2 °F 32.0 °F 30.2 °F 70% 29.70 in 10.0 mi SSE 11.5 mph 18.4 mph N/A   Clear
7:13 PM 39.2 °F 30.8 °F 30.2 °F 70% 29.69 in 10.0 mi South 15.0 mph - N/A   Clear
7:34 PM 39.2 °F 31.6 °F 30.2 °F 70% 29.68 in 10.0 mi SSE 12.7 mph - N/A   Clear
7:53 PM 39.2 °F 31.6 °F 30.2 °F 70% 29.68 in 10.0 mi SSE 12.7 mph - N/A   Clear
8:13 PM 39.2 °F 30.8 °F 30.2 °F 70% 29.68 in 10.0 mi South 15.0 mph - N/A   Clear
8:34 PM 39.2 °F 31.6 °F 30.2 °F 70% 29.67 in 10.0 mi SSE 12.7 mph - N/A   Clear
8:53 PM 39.2 °F 31.2 °F 30.2 °F 70% 29.67 in 10.0 mi South 13.8 mph - N/A   Clear
9:13 PM 39.2 °F 30.8 °F 32.0 °F 75% 29.66 in 10.0 mi South 15.0 mph - N/A   Clear
9:34 PM 39.2 °F 31.2 °F 32.0 °F 75% 29.65 in 10.0 mi South 13.8 mph - N/A   Clear
9:53 PM 39.2 °F 31.6 °F 32.0 °F 75% 29.65 in 10.0 mi South 12.7 mph - N/A   Clear
10:13 PM 39.2 °F 31.6 °F 32.0 °F 75% 29.64 in 10.0 mi South 12.7 mph - N/A   Clear
10:33 PM 39.2 °F 32.0 °F 32.0 °F 75% 29.62 in 10.0 mi SSE 11.5 mph - N/A   Clear
10:53 PM 39.2 °F 32.5 °F 33.8 °F 81% 29.62 in 10.0 mi SSE 10.4 mph - N/A   Clear
11:13 PM 39.2 °F 33.0 °F 33.8 °F 81% 29.62 in 10.0 mi SSE 9.2 mph - N/A   Scattered Clouds
11:33 PM 39.2 °F 33.6 °F 33.8 °F 81% 29.62 in 10.0 mi SSE 8.1 mph - N/A   Mostly Cloudy
11:53 PM 39.2 °F 32.5 °F 33.8 °F 81% 29.61 in 10.0 mi SSE 10.4 mph - N/A   Mostly Cloudy